Regional Weather Roundup
Issued by NWS

Home | Current Version | Previous Version | Text Only | Print | Product List | Glossary On
Versions: 1 2 3 4 5 6 7 8 9 10 11 12 13 14 15 16 17 18 19 20 21 22 23 24 25 26 27 28 29 30 31 32 33 34 35 36 37 38 39 40 41 42 43 44 45 46 47 48 49 50
000
ASUS43 KDTX 040510
RWRMI
MICHIGAN HOURLY REGIONAL WEATHER ROUNDUP
NATIONAL WEATHER SERVICE DETROIT/PONTIAC MI
100 AM EDT FRI SEP 04 2015

NOTE: "FAIR" INDICATES FEW OR NO CLOUDS BELOW 12,000 FEET WITH NO
SIGNIFICANT WEATHER AND/OR OBSTRUCTION TO VISIBILITY.

MIZ047>049-052>055-059>063-066>070-074>076-081>083-040600-
SOUTHEAST LOWER MICHIGAN

CITY           SKY/WX    TMP DP  RH WIND       PRES   REMARKS
ADRIAN         TSTM      70  69  97 E10       29.97R FOG
ALMA           FOG       67  67 100 NE5       29.93S VSB 1/4
ANN ARBOR      CLOUDY    67  66  97 S8        29.97R
BAD AXE        CLOUDY    67  65  94 E5        29.96S
DETROIT CITY   CLOUDY    69  67  93 S5        29.96S
DETROIT        CLOUDY    69  66  90 SE6       29.96S
FLINT          CLOUDY    70  65  84 S9        29.94S
GROSSE ILE     CLOUDY    70  66  88 SE9       29.94S
HILLSDALE      CLOUDY    70  70 100 CALM      29.94S
HOWELL         CLOUDY    67  66  97 SE8       29.95S

CITY           SKY/WX    TMP DP  RH WIND       PRES   REMARKS
JACKSON        CLOUDY    71  69  93 SE8       29.95R
LAMBERTVILLE   CLOUDY    70  67  90 E3        29.95F
LANSING        CLOUDY    69  66  90 SE8       29.93R
LAPEER         NOT AVBL
MASON          CLOUDY    68  65  91 SE6       29.94R FOG
MONROE         CLOUDY    69  67  93 SE8       29.95S
MT. CLEMENS    LGT RAIN  70  70 100 SW6       29.95R
PONTIAC        CLOUDY    67  66  97 S6        29.95S
PORT HOPE        N/A     68  67  96 CALM      29.95S
PORT HURON     LGT RAIN  66  66 100 CALM      29.96F
TRI CITIES     CLOUDY    68  65  90 E6        29.94S
YPSILANTI      TSTM      71  67  87 SE12      29.97R FOG
$$
MIZ043>046-050>051-056>058-064>065-071>073-077>080-040600-
SOUTHWEST LOWER MICHIGAN

CITY           SKY/WX    TMP DP  RH WIND       PRES   REMARKS
BATTLE CREEK   MOCLDY    73  70  90 W5        29.94R
BENTON HARBOR  MOCLDY    69  66  90 CALM      29.95R
BIG RAPIDS     CLOUDY    67  66  97 E6        29.93S
COLDWATER      CLOUDY    73  70  92 CALM      29.93F
HOLLAND        CLEAR     67  65  93 W3        29.94R
GRAND RAPIDS   PTCLDY    68  66  93 W7        29.93R
KALAMAZOO      MOCLDY    73  67  81 NW6       29.94R
MARSHALL       CLOUDY    71  70  96 CALM      29.93R FOG
MUSKEGON       CLOUDY    69  65  86 CALM      29.93S
$$
MIZ016>042-040600-
NORTHERN LOWER MICHIGAN

CITY           SKY/WX    TMP DP  RH WIND       PRES   REMARKS
ALPENA         MOCLDY    68  64  87 NE7       29.99R
BEAVER ISLAND  PTCLDY    66  64  96 E5        29.99S
BELLAIRE       CLOUDY    66  64  93 CALM      29.96F
CADILLAC       DRIZZLE   66  65  97 E9        29.96S
CHARLEVOIX     MOCLDY    67  67  97 NE7       30.00S FOG
FRANKFORT      CLOUDY    69  67  92 E5        29.94S
GAYLORD        CLOUDY    67  67 100 NE6       29.99S
GRAYLING       DRIZZLE   65  65  98 E5        29.99S
HARBOR SPRINGS MOCLDY    66  64  94 E5        29.98S
HOUGHTON LAKE  HVY RAIN  66  65  96 E7        29.98S FOG
MANISTEE       CLOUDY    68  64  88 NE6       29.93S
OSCODA         LGT RAIN  67  66  99 CALM      29.97R
PELLSTON       MOCLDY    65  64  97 N5        29.99S
TRAVERSE CITY  CLOUDY    69  65  86 E6        29.95R
$$
MIZ007>008-015-040600-
EASTERN UPPER MICHIGAN

CITY           SKY/WX    TMP DP  RH WIND       PRES   REMARKS
KINROSS        PTCLDY    66  64  94 NE5       30.01S
MACKINAC ISLAN PTCLDY    65  64  97 E7        30.00S FOG
NEWBERRY       PTCLDY    65  61  87 N6        30.02R
S. S. MARIE    PTCLDY    69  61  75 NE5       30.01R
$$
MIZ004>006-011>014-085-040600-
CENTRAL UPPER MICHIGAN

CITY           SKY/WX    TMP DP  RH WIND       PRES   REMARKS
MANISTIQUE     PTCLDY    62  60  94 N5        30.00S
ESCANABA       CLEAR     63  59  88 CALM      29.98S
MENOMINEE      CLEAR     64  61  88 N3        29.98R
SAWYER-GWINN   CLEAR     62  57  83 NE8       30.04R
$$
MIZ001>003-009>011-084-040600-
WESTERN UPPER MICHIGAN

CITY           SKY/WX    TMP DP  RH WIND       PRES   REMARKS
IRON MOUNTAIN  CLEAR     62  59  90 NW3       30.02R
HOUGHTON       CLEAR     62  58  86 E6        30.03S
COPPER HARBOR    N/A     63  57  81 W5        30.01S
IRONWOOD       CLEAR     61  61 100 CALM      30.00R
$$

ABBREVIATIONS USED IN REMARKS
   TC - TEMPERATURE IN CELSIUS
  WCI - WIND CHILL INDEX
   HX - HEAT INDEX
  VSB - VISIBILITY




USA.gov is the U.S. government's official web portal to all federal, state and local government web resources and services.